Regional Weather Roundup
Issued by NWS

Home | Current Version | Previous Version | Text Only | Print | Product List | Glossary On
Versions: 1 2 3 4 5 6 7 8 9 10 11 12 13 14 15 16 17 18 19 20 21 22 23 24 25 26 27 28 29 30 31 32 33 34 35 36 37 38 39 40 41 42 43 44 45 46 47 48 49 50
000
ASUS42 KTBW 241117
RWRFL
FLORIDA REGIONAL WEATHER ROUNDUP
NATIONAL WEATHER SERVICE TAMPA BAY RUSKIN FL
700 AM EDT SUN MAY 24 2015

NOTE: "FAIR" INDICATES FEW OR NO CLOUDS BELOW 12,000 FEET WITH NO
SIGNIFICANT WEATHER AND/OR OBSTRUCTIONS TO VISIBILITY.


FLZ001>010-012>015-112-114-115-241200-
PANHANDLE FLORIDA

CITY           SKY/WX    TMP DP  RH WIND       PRES   REMARKS
PENSACOLA      CLOUDY    77  74  90 SE12      30.15S
PENSACOLA NAS  MOCLDY    80  75  84 SE14      30.15R
MILTON NAS       N/A     71  67  87 E9        30.18
CRESTVIEW      PTCLDY    70  66  87 NE5       30.21R
DUKE FIELD     FAIR      72  67  84 E7        30.19R
VALPARAISO     MOCLDY    75  70  83 E8        30.18R
MARY ESTHER    MOCLDY    77  70  79 E13G20    30.16  THUNDER
TRI COUNTY     PTSUNNY   71  68  90 VRB3      30.24R
PANAMA CITY    FAIR      72  68  87 NE6       30.20R
TYNDALL AFB    CLEAR     73  70  90 E8        30.20R
APALACHICOLA   CLOUDY    81  72  74 E10G20    30.20R

STATION/POSITION SKY/WX   TEMP    WIND        PRES    WAVE   SWELL
                          AIR SEA DIR/SP/G            HT/PER HT/PER
                          (F)     (DEG/KT/KT) (MB)    (FT/S) (FT/S)
30.1N   87.6W              80 80  120/ 12/ 14 1019.8F   3/ 6   2/15
29.2N   88.2W              80 80  130/ 16/ 19 1020.0R   4/ 6
28.8N   86.0W              81 80  140/ 16/ 21 1020.8R   3/ 4
PANAMA CITY BEAC           74 79   90/ 10/ 15 1021.7R
CAPE SAN BLAS    NOT AVBL
TOWER C                    78     120/ 22/ 23 1022.2R
28.5N   84.5W              80 80  120/ 16/ 19 1021.4R   5/ 6

$$
FLZ011-016>038-118-127-128-134-139-239-241200-
NORTH FLORIDA

CITY           SKY/WX    TMP DP  RH WIND       PRES   REMARKS
MARIANNA       CLOUDY    73  70  90 E7        30.23R
TALLAHASSEE    PTCLDY    73  69  87 E9        30.23R
PERRY          MOCLDY    70  69  96 NE3       30.25R
CROSS CITY       N/A     71  69  93 NE3       30.23R
LAKE CITY      FAIR      66  66 100 CALM      30.26R FOG
GAINESVILLE    PTCLDY    69  67  93 NE3       30.25R
MAYPORT NAS    CLEAR     75  65  70 E14       30.27R
JACKSONVILLE   PTCLDY    70  64  81 E6        30.27R
JAX NAS        PTCLDY    78  65  63 E9        30.27R
JAX CRAIG      CLEAR     74  64  71 E8        30.27R
JAX CECIL      CLEAR     68  66  94 NE5       30.26R
FERNANDINA BEA FAIR      79  64  61 E12G17    30.26R
ST AUGUSTINE   CLEAR     76  66  71 E16       30.26R

STATION/POSITION SKY/WX   TEMP    WIND        PRES    WAVE   SWELL
                          AIR SEA DIR/SP/G            HT/PER HT/PER
                          (F)     (DEG/KT/KT) (MB)    (FT/S) (FT/S)
SHELL POINT                74      70/  5/ 11   N/A
KEATON BEACH               71      70/  6/  8 1024.0R
CEDAR KEY                  74      80/ 11/ 12 1023.9R
FERNANDINA                 74 79   90/  5/ 12 1024.1S
30.7N   81.3W                 77                N/A     5/ 6
MAYPORT                    75 77   90/ 10/ 17 1024.5S
31.4N   80.9W              75 74   90/ 12/ 14 1025.8R   4/ 6   3/ 8
ST AUGUSTINE               76 75   80/ 15/ 17 1025.2R

$$
FLZ040-043>046-052-053-057-058-063-144-241200-
INTERIOR CENTRAL FLORIDA

CITY           SKY/WX    TMP DP  RH WIND       PRES   REMARKS
OCALA          CLEAR     72  66  83 CALM      30.24R
THE VILLAGES     N/A     72  72 100 NE7       30.13R FOG
LEESBURG       CLEAR     74  70  87 E7        30.23R
SANFORD        PTCLDY    73  69  87 NE7       30.22R
ORLANDO EXEC   CLEAR     75  71  87 NE6       30.21R
ORLANDO INTL   PTCLDY    76  72  87 NE9       30.21R
KISSIMMEE      CLEAR     75  73  94 NE5       30.21
WINTER HAVEN   CLEAR     75  72  90 NE5       30.21R
LAKELAND       CLEAR     73  72  94 E6        30.20R
BARTOW         FAIR      73  73 100 NE6       30.21R
OKEECHOBEE     CLEAR     70  70 100 CALM      30.19R FOG

$$
FLZ041-047-054-059-064-141-147-241200-
EAST CENTRAL FLORIDA

CITY           SKY/WX    TMP DP  RH WIND       PRES   REMARKS
ORMOND BEACH   PTCLDY    75  68  78 E7        30.23
DAYTONA BEACH  PTCLDY    76  66  71 E13       30.23R
DELAND           N/A     72  68  88 NE5       30.24R
NEW SMYRNA BEA PTCLDY    75  73  94 E13       30.23
JFK SPACE CTR  PTCLDY    76  70  81 E7        30.20R
TITUSVILLE     PTCLDY    77  75  94 E15       30.21
CAPE CANAVERAL CLEAR     78  72  82 E9        30.20R
PATRICK AFB    PTCLDY    79  74  84 E20       30.19R
MELBOURNE      MOCLDY    78  72  81 E15       30.19R
VERO BEACH     PTCLDY    79  71  76 E7        30.19R
FT PIERCE      PTCLDY    79  73  82 E8        30.18R
STUART         MOCLDY    77  72  83 E6        30.18R

STATION/POSITION SKY/WX   TEMP    WIND        PRES    WAVE   SWELL
                          AIR SEA DIR/SP/G            HT/PER HT/PER
                          (F)     (DEG/KT/KT) (MB)    (FT/S) (FT/S)
28.5N   80.2W              79 80   70/ 16/ 17 1022.5R
28.9N   78.5W              78 80   70/ 14/ 17 1023.2R
TRIDENT PIER               78 82   50/ 11/ 15 1022.9R
28.4N   80.5W                 80                N/A     3/ 8
27.5N   80.2W                 82                N/A     4/ 8

$$
FLZ050-056-061-142-242-148-248-149-249-151-251-155-255-
160-260-241200-
WEST CENTRAL FLORIDA

CITY           SKY/WX    TMP DP  RH WIND       PRES   REMARKS
CRYSTAL RIVER  FAIR      72  70  94 NE3       30.22R
INVERNESS      FAIR      72  72 100 CALM      30.23R
BROOKSVILLE    CLEAR     72  70  93 NE7       30.22R
CLEARWATER     PTCLDY    76  73  91 E8        30.19R
TAMPA INTL     PTCLDY    75  70  84 NE7       30.20R
TAMPA EXEC     CLEAR     75  72  88 E3        30.20R
PLANT CITY     CLEAR     73  73 100 E5        30.22R FOG
MACDILL AFB    CLEAR     75  75  98 E9        30.18R
PETER O KNIGHT CLEAR     77  73  88 NE7       30.19R
ST PETERSBURG  MOCLDY    78  74  87 E15       30.18R
SARASOTA       CLEAR     74  72  93 E7        30.16R
VENICE         FAIR      73  73 100 E9        30.18R

STATION/POSITION SKY/WX   TEMP    WIND        PRES    WAVE   SWELL
                          AIR SEA DIR/SP/G            HT/PER HT/PER
                          (F)     (DEG/KT/KT) (MB)    (FT/S) (FT/S)
CEDAR KEY                  74      80/ 11/ 12 1023.9R
28.5N   84.5W              80 80  120/ 16/ 19 1021.4R   5/ 6
27.3N   84.2W                 81                N/A     4/ 5
CLEARWATER BEACH           76 84   80/  6/  9 1021.9R
MIDDLE TAMPA BAY           76      80/ 14/ 16 1021.8F
VENICE                     74 84   60/  6/  8 1021.3R

$$
FLZ066-069-070-075>078-162-262-165-265-241200-
SOUTHWEST FLORIDA AND KEYS

CITY           SKY/WX    TMP DP  RH WIND       PRES   REMARKS
PUNTA GORDA    CLEAR     72  71  97 NE6       30.18S FOG
FT MYERS       CLEAR     74  73  97 NE7       30.15R
SOUTHWEST INTL CLEAR     73  71  93 E6        30.16R FOG
NAPLES         CLEAR     74  32  21 NE6       30.14R HAZE
MARCO ISLAND     N/A     72  68  88 NE6       30.14R
IMMOKALEE        N/A    N/A N/A N/A CALM      30.17R
MARATHON       PTCLDY    82  74  76 E8        30.11R
KEY WEST NAS   MOCLDY    81  73  76 E13       30.11R
KEY WEST INTL  PTCLDY    81  73  76 E17       30.12R

STATION/POSITION SKY/WX   TEMP    WIND        PRES    WAVE   SWELL
                          AIR SEA DIR/SP/G            HT/PER HT/PER
                          (F)     (DEG/KT/KT) (MB)    (FT/S) (FT/S)
VENICE                     74 84   60/  6/  8 1021.3R
NAPLES                     74 84   50/  4/  6 1020.2S
26.0N   85.6W              80 82  110/ 14/ 17 1019.2R   3/ 6
DRY TORTUGAS               82     120/ 13/ 15 1018.9R
NW FL BAY                  81      70/ 11/ 13 1020.0
SAND KEY                   81     100/ 17/ 20 1019.4R
SOMBRERO KEY               81      90/ 17/ 18 1020.3R
LONG KEY                   81 84  100/ 16/ 19 1020.8R
MOLASSES REEF              80 82   90/ 15/ 17 1020.0R

$$
FLZ067-068-071>074-168-172>174-241200-
SOUTHEAST FLORIDA

CITY           SKY/WX    TMP DP  RH WIND       PRES   REMARKS
W PALM BEACH   PTCLDY    79  69  71 E10       30.17R
FT LAUDER-EXEC CLEAR     79  32  18 E9        30.15R
FT LAUDERDALE  PTCLDY    79  72  79 E12       30.14R
POMPANO BEACH  PTCLDY    79  70  74 E10       30.15R
PEMBROKE PINES CLEAR     78  70  76 E6        30.16R
OPA LOCKA      CLEAR     77  71  82 E6        30.15R
MIAMI          MOCLDY    80  71  74 E9        30.14R
WEST KENDALL   CLEAR     77  71  82 E7        30.14R
HOMESTEAD      PTCLDY    80  71  74 E8        30.13S

STATION/POSITION SKY/WX   TEMP    WIND        PRES    WAVE   SWELL
                          AIR SEA DIR/SP/G            HT/PER HT/PER
                          (F)     (DEG/KT/KT) (MB)    (FT/S) (FT/S)
PORT EVERGLADES            80     100/  5/ 11 1020.9R
VIRGINIA KEY               81 84   90/ 10/ 14 1020.0R
LAKE WORTH                 80 82  120/ 13/ 17 1020.5R


USA.gov is the U.S. government's official web portal to all federal, state and local government web resources and services.